[[{"header":{"parameterUnit":"m.s-1","parameterCategory":1,"la1":30.2991,"la2":30.254,"lo1":-89.0895,"lo2":-89.0444,"dy":0.0017,"dx":0.0017,"nx":28,"ny":28,"refTime":"2024-12-04T09:00:00:Z","depth":0,"parameterNumber":2,"parameterNumberName":"U-component_of_WINDS"},"data":[0,0,0,0,0,0,0,0,0,0,0,0,0,0,0,0,0,0,0,0,0,0,0,0,0,0,0,0,0,0,0,0,0,0,0,0,0,0,0,0,0,0,0,0,0,0,0,0,0,0,0,0,0,0,0,0,0,0,-1.8487,-1.8488,0,-1.8556,-1.8557,-1.8558,-1.8513,-1.8511,-1.8509,-1.8507,-1.8578,-1.8581,-1.8585,0,0,0,0,0,0,0,0,0,0,0,0,0,-1.8314,-1.8318,-1.8487,-1.8488,-1.8489,-1.8556,-1.8557,-1.8558,-1.8513,-1.8511,-1.8508,-1.8506,-1.8576,-1.8581,-1.8586,0,0,0,0,0,0,0,0,0,0,0,0,0,-1.8387,-1.8319,-1.8487,-1.8474,-1.8474,-1.8556,-1.8557,-1.8558,-1.8514,-1.8511,-1.8508,-1.8505,-1.8575,-1.8581,-1.8586,-1.8684,0,0,-1.8604,-1.8606,0,0,0,0,0,0,0,0,-1.8383,-1.8393,-1.8475,-1.8475,-1.8475,-1.8523,-1.8522,-1.8601,-1.8515,-1.8499,-1.8507,-1.8503,-1.8562,-1.8569,-1.8588,-1.8687,-1.8691,-1.8604,-1.8608,-1.861,-1.8612,0,0,0,0,0,0,0,-1.8378,-1.839,-1.8514,-1.8477,-1.8476,-1.8465,-1.8472,-1.8537,-1.8547,-1.85,-1.8497,-1.8506,-1.8561,-1.8583,-1.859,-1.8692,-1.8604,-1.8609,-1.8613,-1.8615,-1.8873,-1.8877,0,0,0,0,0,0,-1.8374,-1.8386,-1.8512,-1.8516,-1.842,-1.8471,-1.8478,-1.8511,-1.8546,-1.8549,-1.8508,-1.8503,-1.8575,-1.8583,-1.8592,-1.8709,-1.861,-1.8616,-1.8619,-1.887,-1.8874,-1.8878,0,0,0,0,0,0,-1.837,-1.8386,-1.8509,-1.845,-1.8465,-1.8477,-1.8513,-1.8514,-1.8535,-1.8552,-1.8554,-1.8529,-1.8573,-1.8584,-1.8661,-1.8711,-1.8618,-1.8623,-1.8866,-1.8871,-1.8876,-1.8944,0,0,0,0,0,0,-1.8366,-1.8385,-1.8423,-1.8452,-1.8469,-1.8578,-1.8517,-1.8517,-1.8545,-1.854,-1.8572,-1.8574,-1.8571,-1.8653,-1.8667,-1.8717,-1.8628,-1.8862,-1.8868,-1.8874,-1.8938,-1.8951,-1.8963,0,0,0,0,0,-1.836,-1.8439,-1.8425,-1.844,-1.8516,-1.8581,-1.8591,-1.8585,-1.855,-1.8588,-1.8598,-1.8573,-1.8703,-1.8661,-1.8677,-1.8729,-1.8859,-1.8866,-1.8874,-1.8932,-1.8948,-1.8962,0,0,0,0,0,0,-1.8416,-1.8443,-1.8427,-1.8518,-1.8548,-1.8573,-1.8621,-1.8603,-1.8643,-1.8636,-1.8627,-1.8635,-1.8716,-1.873,-1.8683,-1.8825,-1.8775,-1.8786,-1.8814,-1.883,-1.8842,-1.8837,-1.8633,0,0,0,0,0,-1.8439,-1.849,-1.851,-1.8589,-1.8604,-1.861,-1.8638,-1.8631,-1.8661,-1.8674,-1.869,-1.872,-1.8767,-1.8799,-1.8843,-1.8938,-1.8945,-1.8982,-1.8994,-1.9005,-1.9015,-1.9066,-1.9083,-1.8903,-1.8903,-1.8903,0,0,-1.8487,-1.8508,-1.8541,-1.86,-1.8622,-1.8675,-1.8621,-1.8679,-1.8718,-1.8682,-1.8757,-1.877,-1.8802,-1.8889,-1.8928,-1.8903,-1.9065,-1.9014,-1.9022,-1.9027,-1.9076,-1.9093,-1.9108,-1.8908,-1.8907,-1.8907,0,0,-1.8602,-1.8623,-1.869,-1.8713,-1.8747,-1.875,-1.8766,-1.8794,-1.8802,-1.8876,-1.885,-1.8895,-1.8977,-1.9002,-1.9025,-1.9147,-1.9125,-1.9161,-1.9227,-1.9277,-1.9291,-1.9303,-1.9347,-1.9363,-1.9171,-1.9171,-1.9171,0,-1.8658,-1.8736,-1.8727,-1.8787,-1.8814,-1.8784,-1.8852,-1.8874,-1.8921,-1.894,-1.8911,-1.9012,-1.9032,-1.9124,-1.9154,-1.9173,-1.9191,-1.9158,-1.9289,-1.9302,-1.9314,-1.9355,-1.9372,-1.9175,-1.9175,-1.9174,-1.9174,0,-1.8803,-1.8858,-1.8908,-1.8954,-1.8986,-1.905,-1.905,-1.9084,-1.9073,-1.9079,-1.9155,-1.9177,-1.9225,-1.9246,-1.9236,-1.9336,-1.932,-1.929,-1.924,-1.9335,-1.9374,-1.939,-1.9181,-1.918,-1.9178,-1.9177,0,0,-1.8958,-1.8997,-1.9016,-1.9036,-1.907,-1.9111,-1.9173,-1.922,-1.9249,-1.9281,-1.9333,-1.9402,-1.9374,-1.94,-1.9393,-1.9436,-1.9532,-1.9401,-1.9402,-1.9426,-1.9643,-1.9666,-1.9685,-1.9517,-1.952,-1.9522,-1.9641,0,-1.9076,-1.9184,-1.9177,-1.9279,-1.9329,-1.9299,-1.9353,-1.9379,-1.9386,-1.9429,-1.9435,-1.9485,-1.9445,-1.946,-1.9502,-1.9511,-1.9575,-1.9502,-1.9565,-1.9567,-1.9559,-1.9705,-1.973,-1.9841,-1.9656,-1.9658,-1.966,0,-1.9228,-1.9266,-1.9373,-1.9398,-1.9419,-1.9467,-1.9509,-1.9551,-1.9579,-1.9581,-1.9609,-1.9594,-1.9655,-1.9602,-1.9686,-1.9637,-1.9661,-1.9669,-1.9673,-1.968,-1.9621,-1.9717,-1.9876,-1.9894,-1.9684,-1.9682,-1.9681,0,-1.9332,-1.9408,-1.9482,-1.95,-1.9532,-1.9566,-1.9581,-1.9606,-1.9635,-1.9671,-1.9689,-1.9732,-1.9755,-1.9788,-1.9785,-1.9746,-1.9871,-1.9817,-1.9874,-1.9874,-1.9903,-1.9902,-2.007,-1.9917,-1.9917,-1.9916,-1.9916,0,-1.9465,-1.9532,-1.9529,-1.9575,-1.9648,-1.9638,-1.9711,-1.9722,-1.9744,-1.9791,-1.9767,-1.9811,-1.9803,-1.9847,-1.9844,-1.9914,-1.9925,-1.9928,-1.9927,-1.9931,-1.9931,-1.9948,-1.9941,-1.9921,-1.992,-1.9919,-1.9918,0,-1.9594,-1.9595,-1.9673,-1.9696,-1.9703,-1.9756,-1.9776,-1.9818,-1.9822,-1.9881,-1.9894,-1.99,-1.995,-1.9949,-2.0006,-2.0004,-2.0091,-2.008,-2.0082,-2.008,-2.0138,-2.0133,-2.0324,-2.0349,-2.0179,-2.018,-2.0182,0,-1.968,-1.973,-1.9758,-1.9788,-1.9804,-1.9852,-1.9881,-1.9872,-1.9903,-1.9938,-1.9977,-2.0024,-2.0063,-2.0144,-2.0153,-2.0196,-2.0187,-2.0251,-2.0193,-2.0196,-2.0189,-2.0187,-2.0192,-2.0263,-2.0265,-2.0266,-2.0267,0,-1.9832,-1.983,-1.9872,-1.9914,-1.9949,-1.9982,-2.0012,-2.0037,-2.0032,-2.0067,-2.0118,-2.0147,-2.0205,-2.0253,-2.0294,-2.0308,-2.0288,-2.0285,-2.0301,-2.0307,-2.0306,-2.0308,-2.0114,-2.0281,-2.028,-2.0279,-2.0278,-2.0278,-1.9943,-1.9986,-2.0013,-2.006,-2.0082,-2.011,-2.0151,-2.0159,-2.0202,-2.0248,-2.024,-2.0297,-2.0323,-2.0376,-2.0393,-2.0437,-2.0415,-2.0437,-2.0443,-2.045,-2.0456,-2.0297,-2.0445,-2.0444,-2.0444,-2.0444,-2.0443,0,-2.0095,-2.011,-2.0154,-2.0196,-2.0233,-2.0209,-2.0241,-2.0274,-2.0324,-2.035,-2.0387,-2.0445,-2.0491,-2.0503,-2.0547,-2.0579,-2.0571,-2.0591,-2.059,-2.0593,-2.0474,-2.0456,-2.0598,-2.0597,-2.0597,-2.0597,-2.0597,-2.0597,-2.0179,-2.0251,-2.0251,-2.0333,-2.0347,-2.0403,-2.0424,-2.0449,-2.0469,-2.0535,-2.0573,-2.058,-2.06,-2.0645,-2.0685,-2.0687,-2.0705,-2.073,-2.0728,-2.0617,-2.0602,-2.0587,-2.0571,-2.0733,-2.0734,-2.0844,-2.0845,-2.0846]},{"header":{"parameterUnit":"m.s-1","parameterCategory":1,"la1":30.2991,"la2":30.254,"lo1":-89.0895,"lo2":-89.0444,"dy":0.0017,"dx":0.0017,"nx":28,"ny":28,"refTime":"2024-12-04T09:00:00:Z","depth":0,"parameterNumber":3,"parameterNumberName":"V-component_of_WINDS"},"data":[0,0,0,0,0,0,0,0,0,0,0,0,0,0,0,0,0,0,0,0,0,0,0,0,0,0,0,0,0,0,0,0,0,0,0,0,0,0,0,0,0,0,0,0,0,0,0,0,0,0,0,0,0,0,0,0,0,0,-7.2907,-7.2908,0,-7.3027,-7.3028,-7.303,-7.2943,-7.2939,-7.2935,-7.2932,-7.305,-7.3056,-7.3063,0,0,0,0,0,0,0,0,0,0,0,0,0,-7.2595,-7.2602,-7.2906,-7.2908,-7.2909,-7.3027,-7.3028,-7.303,-7.2944,-7.2939,-7.2934,-7.293,-7.3048,-7.3055,-7.3063,0,0,0,0,0,0,0,0,0,0,0,0,0,-7.2725,-7.2604,-7.2906,-7.2881,-7.288,-7.3026,-7.3028,-7.303,-7.2945,-7.2939,-7.2933,-7.2928,-7.3045,-7.3055,-7.3065,-7.3242,0,0,-7.3095,-7.31,0,0,0,0,0,0,0,0,-7.2717,-7.2736,-7.2883,-7.2883,-7.2882,-7.2964,-7.2962,-7.3101,-7.2946,-7.292,-7.2932,-7.2925,-7.3026,-7.3037,-7.3072,-7.3247,-7.3252,-7.3096,-7.3102,-7.3107,-7.3109,0,0,0,0,0,0,0,-7.2708,-7.273,-7.2954,-7.2885,-7.2884,-7.2861,-7.2873,-7.2988,-7.3003,-7.2922,-7.2916,-7.2931,-7.3024,-7.3062,-7.3074,-7.3254,-7.3096,-7.3105,-7.3111,-7.3115,-7.3578,-7.3584,0,0,0,0,0,0,-7.2703,-7.2723,-7.295,-7.2957,-7.2784,-7.2871,-7.2885,-7.2943,-7.3002,-7.3005,-7.2936,-7.2927,-7.3048,-7.3062,-7.3078,-7.3288,-7.3107,-7.3116,-7.3122,-7.3572,-7.358,-7.3586,0,0,0,0,0,0,-7.2696,-7.2724,-7.2945,-7.2839,-7.2865,-7.2883,-7.2949,-7.2949,-7.2987,-7.3013,-7.3014,-7.2973,-7.3044,-7.3064,-7.3201,-7.3291,-7.3121,-7.313,-7.3565,-7.3574,-7.3583,-7.3711,0,0,0,0,0,0,-7.2688,-7.2722,-7.2791,-7.2841,-7.2872,-7.3069,-7.2955,-7.2955,-7.3005,-7.2994,-7.3048,-7.3051,-7.3041,-7.3187,-7.3212,-7.3302,-7.3138,-7.3557,-7.3569,-7.358,-7.3699,-7.3724,-7.3745,0,0,0,0,0,-7.2677,-7.2821,-7.2795,-7.2823,-7.2958,-7.3075,-7.3092,-7.3079,-7.3013,-7.3081,-7.3098,-7.3049,-7.3277,-7.3202,-7.3229,-7.3323,-7.3551,-7.3566,-7.3579,-7.3688,-7.3719,-7.3744,0,0,0,0,0,0,-7.278,-7.2827,-7.2799,-7.2964,-7.3016,-7.306,-7.3146,-7.3111,-7.3182,-7.3169,-7.3148,-7.316,-7.3305,-7.3327,-7.3243,-7.3497,-7.3403,-7.3423,-7.3477,-7.3506,-7.3529,-7.352,-7.3146,0,0,0,0,0,-7.2822,-7.2914,-7.295,-7.3092,-7.312,-7.3129,-7.3179,-7.3165,-7.3217,-7.3238,-7.3264,-7.3315,-7.3398,-7.3453,-7.3531,-7.3701,-7.3711,-7.3779,-7.3802,-7.3821,-7.3839,-7.3929,-7.396,-7.3633,-7.3633,-7.3632,0,0,-7.2909,-7.2947,-7.3006,-7.3114,-7.3152,-7.3247,-7.3148,-7.3252,-7.3321,-7.3253,-7.3385,-7.3406,-7.3462,-7.3617,-7.3686,-7.364,-7.3931,-7.3839,-7.3854,-7.3861,-7.3947,-7.3978,-7.4006,-7.3642,-7.3641,-7.3639,0,0,-7.3117,-7.3155,-7.3278,-7.3319,-7.3379,-7.3384,-7.3413,-7.3462,-7.3474,-7.3607,-7.3557,-7.3638,-7.3782,-7.3823,-7.3863,-7.4085,-7.4043,-7.411,-7.4231,-7.4319,-7.4345,-7.4368,-7.4446,-7.4475,-7.4128,-7.4128,-7.4128,0,-7.3217,-7.336,-7.3344,-7.3453,-7.3501,-7.3445,-7.3567,-7.3607,-7.3689,-7.3723,-7.367,-7.3849,-7.3882,-7.4045,-7.41,-7.4134,-7.4165,-7.4105,-7.4343,-7.4365,-7.4386,-7.4461,-7.4491,-7.4136,-7.4135,-7.4134,-7.4134,0,-7.348,-7.3579,-7.367,-7.3753,-7.3811,-7.3926,-7.3926,-7.3986,-7.3966,-7.3976,-7.4111,-7.4149,-7.4233,-7.427,-7.4251,-7.4431,-7.44,-7.4346,-7.4251,-7.4426,-7.4496,-7.4524,-7.4147,-7.4144,-7.4142,-7.414,0,0,-7.3757,-7.3829,-7.3863,-7.3899,-7.3961,-7.4036,-7.4147,-7.4231,-7.4283,-7.4341,-7.4432,-7.4555,-7.4505,-7.455,-7.4535,-7.4613,-7.4785,-7.4548,-7.4549,-7.4591,-7.4984,-7.5025,-7.5059,-7.4757,-7.4763,-7.4767,-7.4979,0,-7.3967,-7.4164,-7.4153,-7.4336,-7.4427,-7.4374,-7.4471,-7.4518,-7.453,-7.4606,-7.4617,-7.4705,-7.4632,-7.4659,-7.4734,-7.4749,-7.4864,-7.4733,-7.4841,-7.4845,-7.4829,-7.5095,-7.5139,-7.5338,-7.5007,-7.5011,-7.5014,0,-7.424,-7.4309,-7.4502,-7.455,-7.4587,-7.4675,-7.475,-7.4825,-7.4876,-7.4879,-7.4929,-7.4901,-7.5011,-7.4914,-7.5064,-7.4975,-7.5018,-7.5032,-7.5039,-7.5049,-7.4941,-7.5112,-7.5401,-7.5431,-7.5057,-7.5054,-7.5051,0,-7.4423,-7.4563,-7.4697,-7.4729,-7.4789,-7.4851,-7.4878,-7.4924,-7.4975,-7.504,-7.5072,-7.5148,-7.519,-7.5249,-7.5241,-7.5171,-7.5394,-7.5296,-7.5398,-7.5398,-7.5447,-7.5445,-7.5747,-7.5475,-7.5475,-7.5474,-7.5474,0,-7.4659,-7.4779,-7.478,-7.4862,-7.4994,-7.4979,-7.5109,-7.5129,-7.517,-7.5254,-7.5212,-7.529,-7.5275,-7.5353,-7.5347,-7.5472,-7.5491,-7.5495,-7.5492,-7.5499,-7.5499,-7.5528,-7.5514,-7.5482,-7.548,-7.5479,-7.5478,0,-7.4886,-7.4891,-7.5033,-7.5077,-7.5091,-7.5187,-7.5223,-7.53,-7.5307,-7.5413,-7.5437,-7.5449,-7.5538,-7.5536,-7.5637,-7.5633,-7.5787,-7.5768,-7.577,-7.5766,-7.5868,-7.5859,-7.62,-7.6244,-7.5943,-7.5946,-7.5949,0,-7.5037,-7.5128,-7.5183,-7.5237,-7.5268,-7.5355,-7.5407,-7.5395,-7.545,-7.5515,-7.5584,-7.5669,-7.5738,-7.5882,-7.5898,-7.5975,-7.5958,-7.6072,-7.5969,-7.5973,-7.5959,-7.5954,-7.5962,-7.6092,-7.6096,-7.6098,-7.6101,0,-7.5304,-7.5302,-7.538,-7.5459,-7.5522,-7.5583,-7.5639,-7.5684,-7.5678,-7.5742,-7.5834,-7.5887,-7.599,-7.6076,-7.6149,-7.6174,-7.6136,-7.6133,-7.616,-7.6169,-7.6166,-7.6169,-7.5825,-7.6125,-7.6123,-7.6121,-7.612,-7.6119,-7.5498,-7.5576,-7.5627,-7.5714,-7.5755,-7.5808,-7.5882,-7.5899,-7.5977,-7.6062,-7.6048,-7.6151,-7.6198,-7.6293,-7.6325,-7.6403,-7.6363,-7.6403,-7.6413,-7.6423,-7.6434,-7.6154,-7.6417,-7.6416,-7.6415,-7.6415,-7.6414,0,-7.5763,-7.5793,-7.5873,-7.5954,-7.6022,-7.5982,-7.6041,-7.61,-7.6191,-7.6239,-7.6308,-7.6412,-7.6495,-7.6517,-7.6596,-7.6654,-7.6638,-7.6675,-7.6671,-7.6677,-7.6466,-7.6435,-7.6686,-7.6686,-7.6686,-7.6686,-7.6686,-7.6686,-7.5909,-7.604,-7.6043,-7.6193,-7.6221,-7.6323,-7.636,-7.6408,-7.6446,-7.6566,-7.6634,-7.6649,-7.6686,-7.6767,-7.684,-7.6844,-7.6875,-7.6919,-7.6916,-7.6719,-7.6692,-7.6666,-7.6636,-7.6925,-7.6926,-7.7119,-7.7121,-7.7122]}]]